Regional Weather Roundup
Issued by NWS

Home | Current Version | Previous Version | Text Only | Print | Product List | Glossary Off
Versions: 1 2 3 4 5 6 7 8 9 10 11 12 13 14 15 16 17 18 19 20 21 22 23 24 25 26 27 28 29 30 31 32 33 34 35 36 37 38 39 40 41 42 43 44 45 46 47 48 49 50

604
ASUS45 KBOU 220607
RWRCO

WEATHER ROUNDUP FOR COLORADO
NATIONAL WEATHER SERVICE DENVER/BOULDER CO
1200 AM MDT THU JUN 22 2017

NOTE: "FAIR" INDICATES FEW OR NO CLOUDS BELOW 12000 FEET WITH NO
SIGNIFICANT WEATHER AND/OR OBSTRUCTIONS TO VISIBILITY.

COZ001>005-013-030-031-220700-
...NORTHWEST COLORADO...

CITY           SKY/WX    TMP DP  RH WIND       PRES   REMARKS
CRAIG          FAIR      56  48  74 CALM      30.07S
HAYDEN         FAIR      61  39  44 E10       30.09F
MEEKER         FAIR      59  42  53 NE12      30.08S
RABBIT EARS PA FAIR      57  32  38 SW6       30.42F
STEAMBOAT SPGS FAIR      56  44  62 CALM      30.13R
WALDEN         FAIR      54  37  54 S5        30.22F
$$

COZ006>008-011-220700-
...WEST CENTRAL VALLEYS...

CITY           SKY/WX    TMP DP  RH WIND       PRES   REMARKS
GRAND JUNCTION FAIR      80  38  22 CALM      29.92S
MONTROSE       FAIR      74  37  26 SE12      30.04F
EAGLE          FAIR      64  39  39 VRB3      30.14S
RIFLE          FAIR      71  41  33 S9        30.02S
DELTA          FAIR      78  36  22 NE10      29.98S
NUCLA          FAIR      73  32  21 E13       30.06S
$$

COZ017>023-064>068-220700-
...SOUTHWEST COLORADO...

CITY           SKY/WX    TMP DP  RH WIND       PRES   REMARKS
DURANGO        FAIR      65  34  31 SE3       30.10R
CORTEZ         FAIR      61  42  49 SE7       30.02F
PAGOSA SPRINGS FAIR      62  32  32 CALM      30.21R
TELLURIDE      FAIR      61  33  33 SE7       30.34F
WOLF CREEK PAS FAIR      54  27  35 NW3       30.62S
$$

COZ009-010-012-014-032>034-037-058>063-220700-
...CENTRAL COLORADO...

CITY           SKY/WX    TMP DP  RH WIND       PRES   REMARKS
ASPEN          FAIR      58  37  45 SW12      30.22F
BUENA VISTA    FAIR      63  32  30 NW12      30.24S
COPPER MTN     FAIR      55  27  33 W10       30.57S
BERTHOUD PASS  FAIR      46  34  61 NW28G37   30.56F
COTTONWOOD PAS FAIR      64  23  20 W9G16     30.39F
GUNNISON       FAIR      61  39  44 N10       30.22S
KREMMLING      NOT AVBL
LEADVILLE      FAIR      51  29  42 E5        30.38F
MONARCH PASS   FAIR      54  27  35 W8        30.67F
SALIDA         FAIR      65  32  28 W8        30.27S
SUNLIGHT       FAIR      59  27  29 CALM      30.48F
WILKERSON PASS FAIR      55  27  33 W6        30.53S
$$

COZ069>075-220700-
...SAN LUIS VALLEY/SANGRE DE CRISTO MOUNTAINS...

CITY           SKY/WX    TMP DP  RH WIND       PRES   REMARKS
ALAMOSA        FAIR      58  45  62 CALM      30.19R
DEL NORTE      FAIR      63  32  32 SW12      30.23S
LA VETA PASS   FAIR      59  34  38 MISG      30.54S
SAGUACHE       FAIR      61  32  33 N7        30.22S
$$

COZ035-036-038>040-220700-
...NORTHERN COLORADO FRONT RANGE...

CITY           SKY/WX    TMP DP  RH WIND       PRES   REMARKS
DENVER INTL AP FAIR      76  39  26 SW10      29.95F
DMNS CITY PARK   N/A     74  40  29 S3        29.96S
AURORA         MOCLDY    69  40  35 S7        29.98S
FRONT RANGE AP FAIR      72  39  30 SW10      29.97S
ERIE MUNI ARPT FAIR      80  34  19 CALM      29.92S
BOULDER MUN AP FAIR      82  34  17 S3        29.93F
CENTENNIAL     FAIR      74  38  27 SW10      30.00S
BROOMFIELD     FAIR      81  34  18 W7        29.98R
FORT COLLINS   FAIR      71  45  39 S6        29.91S
LONGMONT       FAIR      75  40  28 CALM      29.93S
$$

COZ041-046-047-076>085-087-088-220700-
...PIKES PEAK/PALMER DIVIDE AND SOUTHERN FOOTHILLS...

CITY           SKY/WX    TMP DP  RH WIND       PRES   REMARKS
COLO. SPRINGS  FAIR      72  40  31 N6        30.05F
A. F. ACADEMY  FAIR      58  42  55 NE7       30.08F
SCHRIEVER AFB  NOT AVBL
CHEYENNE MTN   NOT AVBL
ELLICOTT       FAIR     N/A N/A N/A NW3       30.04S
FALCON           N/A     65  35  32 W17       30.11F
FORT CARSON    FAIR      68  37  31 CALM      30.01F
LIMON          FAIR      63  40  42 NE5       29.95F
MONUMENT HILL  FAIR      64  36  34 SW10      30.13S
CANON CITY     CLEAR     75  43  31 NW9       30.01R
WALSENBURG     NOT AVBL
TRINIDAD       FAIR      70  43  37 W7        30.06R
$$

COZ042>045-048>051-090-091-220700-
...NORTHEAST COLORADO...

CITY           SKY/WX    TMP DP  RH WIND       PRES   REMARKS
GREELEY ARPT   FAIR      66  49  54 NE6       29.88F
AKRON          FAIR      73  41  31 E3        29.89F
BURLINGTON     FAIR      70  54  56 S14       29.88R
WRAY           FAIR      68  48  49 W6        29.81R
YUMA           FAIR      68  46  45 W7G13     29.85R
STERLING       FAIR      68  48  49 S3        29.82S
HOLYOKE        NOT AVBL
FORT MORGAN    FAIR      71  36  27 W3        29.88S
$$

COZ086-089-092>099-220700-
...SOUTHEAST COLORADO...

CITY           SKY/WX    TMP DP  RH WIND       PRES   REMARKS
PUEBLO         FAIR      69  51  52 SW6       29.93R
LA JUNTA       FAIR      72  50  45 SW7       29.90R
LAMAR          FAIR      77  54  44 S21G29    29.85R
SPRINGFIELD      N/A     66  59  78 S14       29.97R
$$




USA.gov is the U.S. government's official web portal to all federal, state and local government web resources and services.